| time (UTC) | temp C | wind direction | speed KPH | gust KPH | rain 1hr cm | rain 24hr cm | rain mn cm | humidity % | barometer mb |
| 20260505070046 | 18 | 150 | 0.0 | 0.0 | 0.00 | 0.00 | 0.00 | 64 | 1009.1 |
| 20260505064543 | 18 | 199 | 0.0 | 0.0 | 0.00 | 0.00 | 0.00 | 63 | 1009.3 |
| 20260505063042 | 19 | 189 | 0.0 | 0.0 | 0.00 | 0.00 | 0.00 | 62 | 1009.4 |
| 20260505061545 | 19 | 180 | 0.0 | 0.0 | 0.00 | 0.00 | 0.00 | 62 | 1009.4 |
| 20260505060040 | 19 | 176 | 0.0 | 0.0 | 0.00 | 0.00 | 0.00 | 61 | 1009.7 |
| 20260505054541 | 19 | 191 | 0.0 | 0.0 | 0.00 | 0.00 | 0.00 | 61 | 1009.5 |
| 20260505053043 | 20 | 213 | 0.0 | 0.0 | 0.00 | 0.00 | 0.00 | 60 | 1009.5 |
| 20260505051535 | 20 | 168 | 0.0 | 1.6 | 0.00 | 0.00 | 0.00 | 60 | 1009.6 |
| 20260505041530 | 20 | 192 | 0.0 | 0.0 | 0.00 | 0.00 | 0.00 | 59 | 1009.9 |
| 20260505040030 | 20 | 222 | 0.0 | 3.2 | 0.00 | 0.00 | 0.00 | 58 | 1009.8 |
| 20260505034529 | 21 | 170 | 0.0 | 3.2 | 0.00 | 0.00 | 0.00 | 57 | 1009.6 |
| 20260505033044 | 21 | 213 | 0.0 | 0.0 | 0.00 | 0.00 | 0.00 | 57 | 1009.8 |
| 20260505031529 | 21 | 150 | 0.0 | 0.0 | 0.00 | 0.00 | 0.00 | 56 | 1009.7 |
| 20260505030029 | 21 | 143 | 0.0 | 3.2 | 0.00 | 0.00 | 0.00 | 55 | 1009.6 |
| 20260505024528 | 21 | 157 | 0.0 | 0.0 | 0.00 | 0.00 | 0.00 | 55 | 1009.5 |
| 20260505023027 | 21 | 185 | 0.0 | 4.8 | 0.00 | 0.00 | 0.00 | 53 | 1009.4 |
| 20260505021528 | 22 | 218 | 0.0 | 0.0 | 0.00 | 0.00 | 0.00 | 52 | 1009.2 |
| 20260505020026 | 22 | 199 | 0.0 | 0.0 | 0.00 | 0.00 | 0.00 | 52 | 1009.0 |
| 20260505014528 | 22 | 154 | 0.0 | 0.0 | 0.00 | 0.00 | 0.00 | 51 | 1009.0 |
| 20260505013025 | 22 | 211 | 0.0 | 1.6 | 0.00 | 0.00 | 0.00 | 50 | 1009.0 |
| 20260505011525 | 22 | 181 | 0.0 | 6.4 | 0.00 | 0.00 | 0.00 | 50 | 1009.0 |
| 20260505010024 | 23 | 226 | 0.0 | 3.2 | 0.00 | 0.00 | 0.00 | 49 | 1008.9 |
| 20260505004537 | 23 | 207 | 0.0 | 6.4 | 0.00 | 0.00 | 0.00 | 48 | 1008.6 |
| 20260505003023 | 23 | 132 | 0.0 | 6.4 | 0.00 | 0.00 | 0.00 | 47 | 1008.7 |
| 20260505001522 | 24 | 146 | 0.0 | 6.4 | 0.00 | 0.00 | 0.00 | 46 | 1008.6 |
| 20260505000023 | 25 | 191 | 0.0 | 6.4 | 0.00 | 0.00 | 0.00 | 43 | 1008.6 |
| 20260504234528 | 25 | 201 | 0.0 | 8.0 | 0.00 | 0.00 | 0.00 | 43 | 1008.8 |
| 20260504233020 | 25 | 181 | 0.0 | 8.0 | 0.00 | 0.00 | 0.00 | 42 | 1008.8 |
| 20260504231532 | 25 | 182 | 0.0 | 3.2 | 0.00 | 0.00 | 0.00 | 43 | 1008.8 |
| 20260504230018 | 25 | 152 | 0.0 | 8.0 | 0.00 | 0.00 | 0.00 | 41 | 1008.9 |
| 20260504224517 | 26 | 281 | 0.0 | 6.4 | 0.00 | 0.00 | 0.00 | 39 | 1008.9 |
| 20260504223018 | 26 | 180 | 0.0 | 8.0 | 0.00 | 0.00 | 0.00 | 41 | 1008.9 |
| 20260504221516 | 26 | 224 | 0.0 | 12.9 | 0.00 | 0.00 | 0.00 | 41 | 1008.9 |
| 20260504220016 | 26 | 210 | 0.0 | 9.7 | 0.00 | 0.00 | 0.00 | 39 | 1009.0 |
| 20260504214518 | 27 | 174 | 0.0 | 11.3 | 0.00 | 0.00 | 0.00 | 39 | 1008.9 |
| 20260504213015 | 27 | 175 | 0.0 | 6.4 | 0.00 | 0.00 | 0.00 | 41 | 1008.9 |
| 20260504211514 | 27 | 161 | 0.0 | 17.7 | 0.00 | 0.00 | 0.00 | 40 | 1009.1 |
| 20260504210014 | 27 | 158 | 0.0 | 6.4 | 0.00 | 0.00 | 0.00 | 39 | 1009.2 |
| 20260504204515 | 27 | 128 | 1.6 | 9.7 | 0.00 | 0.00 | 0.00 | 40 | 1009.4 |
| 20260504203012 | 27 | 198 | 0.0 | 14.5 | 0.00 | 0.00 | 0.00 | 40 | 1009.6 |
| 20260504201507 | 27 | 200 | 0.0 | 12.9 | 0.00 | 0.00 | 0.00 | 41 | 1009.8 |
| 20260504200009 | 27 | 226 | 0.0 | 12.9 | 0.00 | 0.00 | 0.00 | 40 | 1010.2 |
| 20260504194508 | 27 | 145 | 4.8 | 14.5 | 0.00 | 0.00 | 0.00 | 39 | 1010.3 |
| 20260504193005 | 27 | 159 | 1.6 | 6.4 | 0.00 | 0.00 | 0.00 | 39 | 1010.8 |
| 20260504191600 | 27 | 198 | 0.0 | 9.7 | 0.00 | 0.00 | 0.00 | 40 | 1010.8 |
| 20260504184604 | 27 | 198 | 0.0 | 11.3 | 0.00 | 0.00 | 0.00 | 42 | 1011.0 |
| 20260504183059 | 27 | 189 | 3.2 | 17.7 | 0.00 | 0.00 | 0.00 | 41 | 1011.2 |
| 20260504181551 | 26 | 183 | 3.2 | 16.1 | 0.00 | 0.00 | 0.00 | 43 | 1011.4 |
| 20260504180049 | 26 | 153 | 0.0 | 8.0 | 0.00 | 0.00 | 0.00 | 43 | 1011.8 |
| 20260504174550 | 26 | 168 | 0.0 | 12.9 | 0.00 | 0.00 | 0.00 | 45 | 1011.8 |
| 20260504173046 | 26 | 313 | 0.0 | 9.7 | 0.00 | 0.00 | 0.00 | 44 | 1012.0 |
| 20260504171546 | 26 | 274 | 0.0 | 9.7 | 0.00 | 0.00 | 0.00 | 45 | 1012.2 |
| 20260504081534 | 16 | 201 | 0.0 | 0.0 | 0.00 | 0.00 | 0.00 | 68 | 1013.3 |